Location: Newark
(33.6333°S, 78.8500°W)
Time: 07:18:56
(UTC+00:00)

Vanguard 1 - Pass Details

Date: 28 September 2019
Orbit: 653 x 3830 km, 34.2° (Epoch: 18 October)

Event Time Altitude Azimuth Distance (km) Brightness Sun altitude
Rises 02:08:25 0° 277° (W) 4,522 14.1 -35.2°
Reaches altitude 10° 02:12:56 10° 299° (WNW) 4,081 13.5 -36.0°
Maximum altitude 02:18:35 15° 330° (NNW) 4,310 13.2 -37.0°
Enters shadow 02:23:31 12° 351° (N) 5,032 13.4 -37.8°
